Home   Weather   Belfast   Past weeks
Flag for United Kingdom

Past Weather in Belfast, Northern Ireland, United Kingdom — Yesterday and Last 2 Weeks

Now
59 °F

Passing clouds.


Feels Like: 57 °F
Forecast: 58 / 46 °F
Wind: 12 mph from Southwest

Location: Belfast / Harbour

Current Time: Jun 19, 2019 at 10:27:18 am

Latest Report: Jun 19, 2019 at 9:50 am


Visibility: N/A

Pressure: 29.77 "Hg

Humidity: 72%

Dew Point: 50 °F

Location of BelfastLocation

Past Weather in Belfast — Graph

°F

Belfast Temperature Yesterday

Maximum temperature yesterday: 66 °F (at 2:20 pm)
Minimum temperature yesterday: 50 °F (at 1:20 am)
Average temperature yesterday: 57 °F

High & Low Weather Summary for the Past Weeks

 TemperatureHumidityPressure
High66 °F (Jun 18, 2:20 pm)100% (Jun 4, 12:20 pm)30.21 "Hg (Jun 4, 12:20 pm)
Low43 °F (Jun 14, 2:50 am)49% (Jun 18, 3:50 pm)29.47 "Hg (Jun 5, 3:20 am)
Average53 °F82%29.82 "Hg
* Reported Jun 4 9:20 am — Jun 19 9:20 am, Belfast. Weather by CustomWeather, © 2019

Note: Actual official high and low records may vary slightly from our data, if they occured in-between our weather recording intervals... More about our weather records

Advertising

Belfast Weather History for the Previous 24 Hours

Scroll right to see more
 ConditionsComfort  
Time TempWeatherWind HumidityBarometerVisibility
9:20 am
Wed, Jun 19
59 °FCool.10 mph72%29.77 "HgN/A
8:50 am57 °FCool.9 mph77%29.77 "HgN/A
8:20 am55 °FCool.9 mph82%29.77 "HgN/A
7:50 am54 °FCool.9 mph88%29.77 "HgN/A
6:50 am52 °FCool.7 mph94%29.77 "HgN/A
6:20 am50 °FCool.5 mph100%29.77 "HgN/A
5:50 am48 °FCool.6 mph100%29.77 "HgN/A
5:20 am46 °FCool.5 mph100%29.77 "HgN/A
4:50 am46 °FFog.3 mph100%29.77 "Hg1 mi
4:20 am46 °FCool.5 mph100%29.80 "HgN/A
3:50 am48 °FCool.5 mph100%29.80 "HgN/A
3:20 am48 °FCool.5 mph94%29.80 "Hg5 mi
2:50 am48 °FFog.3 mph100%29.80 "Hg1 mi
2:20 am48 °FFog.2 mph100%29.80 "Hg2 mi
1:50 am48 °FFog.No wind100%29.80 "Hg1 mi
1:20 am50 °FFog.1 mph94%29.80 "Hg1 mi
12:50 am50 °FFog.No wind94%29.80 "Hg1 mi
12:20 am50 °FCool.1 mph100%29.83 "HgN/A
11:20 pm
Tue, Jun 18
52 °FFog.No wind94%29.83 "Hg0 mi
10:50 pm54 °FCool.No wind94%29.83 "HgN/A
10:20 pm54 °FCool.1 mph94%29.83 "HgN/A
9:50 pm55 °FCool.2 mph94%29.83 "HgN/A
9:20 pm57 °FPassing clouds.5 mph82%29.83 "HgN/A
8:50 pm57 °FLight rain. Partly sunny.3 mph88%29.83 "HgN/A
8:20 pm57 °FLight rain. Partly sunny.6 mph88%29.83 "HgN/A
7:50 pm57 °FScattered clouds.5 mph88%29.83 "HgN/A
7:20 pm57 °FRain. Broken clouds.2 mph88%29.83 "HgN/A
6:50 pm59 °FLight rain. Scattered clouds.7 mph82%29.83 "Hg4 mi
6:20 pm61 °FPassing clouds.10 mph72%29.83 "HgN/A
5:50 pm63 °FPassing clouds.7 mph68%29.83 "HgN/A
5:20 pm63 °FScattered clouds.6 mph59%29.83 "HgN/A
4:50 pm64 °FScattered clouds.8 mph56%29.83 "HgN/A
4:20 pm66 °FPartly sunny.7 mph52%29.83 "HgN/A
3:50 pm66 °FPartly sunny.6 mph49%29.83 "HgN/A
3:20 pm64 °FPassing clouds.7 mph56%29.86 "HgN/A
2:50 pm64 °FPartly sunny.7 mph56%29.86 "HgN/A
2:20 pm66 °FMild.8 mph56%29.86 "HgN/A
1:50 pm63 °FScattered clouds.10 mph59%29.86 "HgN/A
1:20 pm64 °FPartly sunny.13 mph60%29.86 "HgN/A
12:50 pm63 °FPartly sunny.7 mph64%29.86 "HgN/A
12:20 pm61 °FScattered clouds.9 mph68%29.86 "HgN/A
11:50 am61 °FPartly sunny.8 mph68%29.86 "HgN/A
11:20 am59 °FPartly sunny.9 mph68%29.86 "HgN/A
10:50 am59 °FOvercast.9 mph68%29.86 "HgN/A
10:20 am57 °FPartly sunny.10 mph72%29.86 "HgN/A
Weather by CustomWeather, © 2019

See weather overview